Time,TemperatureF,DewpointF,PressureIn,WindDirection,WindDirectionDegrees,WindSpeedMPH,WindSpeedGustMPH,Humidity,HourlyPrecipIn,Conditions,Clouds,dailyrainin,SoftwareType,DateUTC
2013-02-21 00:01:00,9.0,9.0,-100.00,ESE,110,11.0,16.0,98,0.00,,,0.00,,2013-02-21 06:01:00,
2013-02-21 00:11:00,9.0,9.0,-100.00,East,100,11.0,13.0,98,0.00,,,0.00,,2013-02-21 06:11:00,
2013-02-21 00:21:00,9.0,9.0,-100.00,East,100,11.0,14.0,98,0.00,,,0.00,,2013-02-21 06:21:00,
2013-02-21 00:31:00,9.0,9.0,-100.00,East,100,12.0,15.0,98,0.00,,,0.00,,2013-02-21 06:31:00,
2013-02-21 00:41:00,9.0,9.0,-100.00,East,100,11.0,16.0,99,0.00,,,0.00,,2013-02-21 06:41:00,
2013-02-21 00:51:00,9.0,9.0,-100.00,ESE,105,10.0,15.0,99,0.00,,,0.00,,2013-02-21 06:51:00,
2013-02-21 01:01:00,9.0,9.0,-100.00,ESE,105,9.0,12.0,99,0.00,,,0.00,,2013-02-21 07:01:00,
2013-02-21 02:01:00,9.0,9.0,-100.00,ESE,110,7.0,11.0,99,0.00,,,0.00,,2013-02-21 08:01:00,
2013-02-21 02:11:00,9.0,9.0,-100.00,ESE,105,10.0,11.0,99,0.00,,,0.00,,2013-02-21 08:11:00,
2013-02-21 02:21:00,9.0,9.0,-100.00,ESE,115,6.0,11.0,99,0.00,,,0.00,,2013-02-21 08:21:00,
2013-02-21 02:32:00,9.0,9.0,-100.00,ESE,105,9.0,11.0,99,0.00,,,0.00,,2013-02-21 08:32:00,
2013-02-21 03:01:00,9.0,9.0,-100.00,East,95,7.0,11.0,99,0.00,,,0.00,,2013-02-21 09:01:00,
2013-02-21 03:31:00,9.0,9.0,-100.00,East,85,9.0,11.0,99,0.00,,,0.00,,2013-02-21 09:31:00,
2013-02-21 03:41:00,9.0,9.0,-100.00,East,95,9.0,11.0,99,0.00,,,0.00,,2013-02-21 09:41:00,
2013-02-21 03:51:00,9.0,9.0,-100.00,East,95,11.0,13.0,99,0.00,,,0.00,,2013-02-21 09:51:00,
2013-02-21 04:01:00,9.0,9.0,-100.00,East,95,12.0,14.0,99,0.00,,,0.00,,2013-02-21 10:01:00,
2013-02-21 04:11:00,9.0,9.0,-100.00,East,95,12.0,16.0,99,0.00,,,0.00,,2013-02-21 10:11:00,
2013-02-21 04:21:00,9.0,9.0,-100.00,East,95,10.0,14.0,99,0.00,,,0.00,,2013-02-21 10:21:00,
2013-02-21 04:31:00,9.0,9.0,-100.00,East,80,13.0,16.0,99,0.00,,,0.00,,2013-02-21 10:31:00,
2013-02-21 04:41:00,9.0,9.0,-100.00,East,85,15.0,17.0,99,0.00,,,0.00,,2013-02-21 10:41:00,
2013-02-21 04:51:00,9.0,9.0,-100.00,East,80,16.0,20.0,99,0.00,,,0.00,,2013-02-21 10:51:00,
2013-02-21 05:01:00,9.0,9.0,-100.00,East,80,12.0,18.0,99,0.00,,,0.00,,2013-02-21 11:01:00,
2013-02-21 05:11:00,9.0,9.0,-100.00,East,90,12.0,15.0,99,0.00,,,0.00,,2013-02-21 11:11:00,
2013-02-21 05:21:00,9.0,9.0,-100.00,ESE,105,9.0,13.0,99,0.00,,,0.00,,2013-02-21 11:21:00,
2013-02-21 05:31:00,9.0,9.0,-100.00,SE,140,6.0,11.0,99,0.00,,,0.00,,2013-02-21 11:31:00,
2013-02-21 05:41:00,9.0,9.0,-100.00,SE,130,7.0,11.0,99,0.00,,,0.00,,2013-02-21 11:41:00,
2013-02-21 05:51:00,9.0,9.0,-100.00,SE,125,6.0,11.0,99,0.00,,,0.00,,2013-02-21 11:51:00,
2013-02-21 06:01:00,9.0,9.0,-100.00,SE,130,6.0,10.0,99,0.00,,,0.00,,2013-02-21 12:01:00,
2013-02-21 06:11:00,9.0,9.0,-100.00,ESE,120,5.0,9.0,99,0.00,,,0.00,,2013-02-21 12:11:00,
2013-02-21 06:21:00,9.0,9.0,-100.00,East,85,7.0,10.0,99,0.00,,,0.00,,2013-02-21 12:21:00,
2013-02-21 07:32:00,9.0,9.0,-100.00,East,90,9.0,14.0,99,0.00,,,0.00,,2013-02-21 13:32:00,
2013-02-21 07:41:00,9.0,9.0,-100.00,East,85,10.0,15.0,99,0.00,,,0.00,,2013-02-21 13:41:00,
2013-02-21 07:51:00,9.0,9.0,-100.00,East,80,9.0,13.0,99,0.00,,,0.00,,2013-02-21 13:51:00,
2013-02-21 08:02:00,9.0,9.0,-100.00,East,80,10.0,12.0,99,0.00,,,0.00,,2013-02-21 14:02:00,
2013-02-21 08:11:00,9.0,9.0,-100.00,East,95,11.0,13.0,99,0.00,,,0.00,,2013-02-21 14:11:00,
2013-02-21 08:21:00,10.0,10.0,-100.00,ESE,105,11.0,13.0,99,0.00,,,0.00,,2013-02-21 14:21:00,
2013-02-21 08:32:00,11.0,10.0,-100.00,East,95,11.0,13.0,99,0.00,,,0.00,,2013-02-21 14:32:00,
2013-02-21 08:41:00,11.0,10.0,-100.00,East,95,13.0,17.0,99,0.00,,,0.00,,2013-02-21 14:41:00,
2013-02-21 08:52:00,11.0,10.0,-100.00,East,85,12.0,16.0,99,0.00,,,0.00,,2013-02-21 14:52:00,
2013-02-21 09:01:00,11.0,10.0,-100.00,East,90,14.0,17.0,99,0.00,,,0.00,,2013-02-21 15:01:00,
2013-02-21 09:32:00,12.0,12.0,-100.00,East,95,12.0,16.0,98,0.00,,,0.00,,2013-02-21 15:32:00,
2013-02-21 09:42:00,13.0,12.0,-100.00,East,90,13.0,16.0,98,0.00,,,0.00,,2013-02-21 15:42:00,
2013-02-21 09:51:00,13.0,12.0,-100.00,East,95,12.0,14.0,98,0.00,,,0.00,,2013-02-21 15:51:00,
2013-02-21 10:01:00,13.0,12.0,-100.00,East,100,13.0,17.0,97,0.00,,,0.00,,2013-02-21 16:01:00,
2013-02-21 10:12:00,14.0,14.0,-100.00,ESE,105,12.0,15.0,97,0.00,,,0.00,,2013-02-21 16:12:00,
2013-02-21 10:21:00,15.0,14.0,-100.00,East,100,11.0,14.0,95,0.00,,,0.00,,2013-02-21 16:21:00,
2013-02-21 10:32:00,16.0,14.0,-100.00,East,95,12.0,17.0,94,0.00,,,0.00,,2013-02-21 16:32:00,
2013-02-21 10:42:00,16.0,14.0,-100.00,ESE,105,13.0,16.0,93,0.00,,,0.00,,2013-02-21 16:42:00,
2013-02-21 10:52:00,17.0,14.0,-100.00,East,95,12.0,17.0,91,0.00,,,0.00,,2013-02-21 16:52:00,
2013-02-21 11:01:00,17.0,14.0,-100.00,East,100,12.0,18.0,89,0.00,,,0.00,,2013-02-21 17:01:00,
2013-02-21 11:11:00,17.0,14.0,-100.00,East,95,14.0,17.0,88,0.00,,,0.00,,2013-02-21 17:11:00,
2013-02-21 11:21:00,18.0,14.0,-100.00,ESE,105,14.0,19.0,87,0.00,,,0.00,,2013-02-21 17:21:00,
2013-02-21 11:32:00,18.0,14.0,-100.00,East,100,16.0,20.0,86,0.00,,,0.00,,2013-02-21 17:32:00,
2013-02-21 11:42:00,18.0,14.0,-100.00,East,100,17.0,21.0,85,0.00,,,0.00,,2013-02-21 17:42:00,
2013-02-21 11:52:00,19.0,16.0,-100.00,ESE,110,12.0,19.0,85,0.00,,,0.00,,2013-02-21 17:52:00,
2013-02-21 12:02:00,19.0,16.0,-100.00,ESE,105,14.0,19.0,85,0.00,,,0.00,,2013-02-21 18:02:00,
2013-02-21 12:11:00,19.0,16.0,-100.00,East,95,12.0,18.0,84,0.00,,,0.00,,2013-02-21 18:11:00,
2013-02-21 12:22:00,20.0,16.0,-100.00,ESE,105,16.0,19.0,84,0.00,,,0.00,,2013-02-21 18:22:00,
2013-02-21 12:31:00,19.0,16.0,-100.00,East,85,14.0,17.0,85,0.00,,,0.00,,2013-02-21 18:31:00,
2013-02-21 12:42:00,20.0,16.0,-100.00,East,90,15.0,18.0,84,0.00,,,0.00,,2013-02-21 18:42:00,
2013-02-21 12:51:00,20.0,16.0,-100.00,East,100,17.0,20.0,84,0.00,,,0.00,,2013-02-21 18:51:00,
2013-02-21 13:01:00,20.0,16.0,-100.00,East,85,15.0,20.0,84,0.00,,,0.00,,2013-02-21 19:01:00,
2013-02-21 13:12:00,21.0,16.0,-100.00,East,85,16.0,19.0,84,0.00,,,0.00,,2013-02-21 19:12:00,
2013-02-21 13:21:00,21.0,16.0,-100.00,East,90,16.0,20.0,82,0.00,,,0.00,,2013-02-21 19:21:00,
2013-02-21 13:31:00,21.0,16.0,-100.00,East,80,17.0,21.0,81,0.00,,,0.00,,2013-02-21 19:31:00,
2013-02-21 13:41:00,22.0,18.0,-100.00,East,90,17.0,21.0,80,0.00,,,0.00,,2013-02-21 19:41:00,
2013-02-21 13:51:00,22.0,16.0,-100.00,East,90,15.0,24.0,79,0.00,,,0.00,,2013-02-21 19:51:00,
2013-02-21 14:01:00,22.0,16.0,-100.00,East,80,17.0,22.0,78,0.00,,,0.00,,2013-02-21 20:01:00,
2013-02-21 14:11:00,22.0,16.0,-100.00,East,90,16.0,21.0,78,0.00,,,0.00,,2013-02-21 20:11:00,
2013-02-21 14:21:00,22.0,16.0,-100.00,ENE,75,19.0,24.0,77,0.00,,,0.00,,2013-02-21 20:21:00,
2013-02-21 14:32:00,22.0,16.0,-100.00,East,85,16.0,24.0,78,0.00,,,0.00,,2013-02-21 20:32:00,
2013-02-21 14:41:00,22.0,16.0,-100.00,East,80,19.0,22.0,77,0.00,,,0.00,,2013-02-21 20:41:00,
2013-02-21 14:52:00,22.0,16.0,-100.00,East,80,19.0,23.0,77,0.00,,,0.00,,2013-02-21 20:52:00,
2013-02-21 15:02:00,22.0,16.0,-100.00,East,80,20.0,23.0,77,0.00,,,0.00,,2013-02-21 21:02:00,
2013-02-21 15:11:00,23.0,16.0,-100.00,East,80,16.0,23.0,77,0.00,,,0.00,,2013-02-21 21:11:00,
2013-02-21 15:21:00,22.0,16.0,-100.00,ENE,75,19.0,23.0,77,0.00,,,0.00,,2013-02-21 21:21:00,
2013-02-21 15:31:00,22.0,18.0,-100.00,ENE,75,17.0,22.0,78,0.00,,,0.00,,2013-02-21 21:31:00,
2013-02-21 15:42:00,23.0,18.0,-100.00,East,80,15.0,21.0,79,0.00,,,0.00,,2013-02-21 21:42:00,
2013-02-21 15:51:00,22.0,18.0,-100.00,ENE,70,14.0,24.0,79,0.00,,,0.00,,2013-02-21 21:51:00,
2013-02-21 16:01:00,22.0,18.0,-100.00,East,80,17.0,21.0,80,0.00,,,0.00,,2013-02-21 22:01:00,
2013-02-21 16:11:00,22.0,18.0,-100.00,ENE,75,16.0,21.0,81,0.00,,,0.00,,2013-02-21 22:11:00,
2013-02-21 16:21:00,22.0,18.0,-100.00,ENE,65,17.0,21.0,82,0.00,,,0.00,,2013-02-21 22:21:00,
2013-02-21 16:31:00,22.0,18.0,-100.00,ENE,70,15.0,21.0,82,0.00,,,0.00,,2013-02-21 22:31:00,
2013-02-21 16:41:00,21.0,18.0,-100.00,ENE,60,13.0,20.0,83,0.00,,,0.00,,2013-02-21 22:41:00,
2013-02-21 16:52:00,21.0,18.0,-100.00,ENE,70,17.0,21.0,84,0.00,,,0.00,,2013-02-21 22:52:00,
2013-02-21 17:01:00,21.0,18.0,-100.00,ENE,65,14.0,21.0,85,0.00,,,0.00,,2013-02-21 23:01:00,
2013-02-21 17:11:00,21.0,18.0,-100.00,ENE,75,15.0,21.0,85,0.00,,,0.00,,2013-02-21 23:11:00,
2013-02-21 17:21:00,20.0,18.0,-100.00,ENE,70,13.0,19.0,86,0.00,,,0.00,,2013-02-21 23:21:00,
2013-02-21 17:31:00,20.0,18.0,-100.00,ENE,70,16.0,20.0,87,0.00,,,0.00,,2013-02-21 23:31:00,
2013-02-21 17:41:00,20.0,18.0,-100.00,ENE,70,16.0,21.0,87,0.00,,,0.00,,2013-02-21 23:41:00,
2013-02-21 17:52:00,20.0,18.0,-100.00,ENE,70,13.0,20.0,88,0.00,,,0.00,,2013-02-21 23:52:00,
2013-02-21 18:01:00,20.0,16.0,-100.00,ENE,65,13.0,21.0,88,0.00,,,0.00,,2013-02-22 00:01:00,
2013-02-21 18:11:00,19.0,16.0,-100.00,ENE,60,15.0,21.0,89,0.00,,,0.00,,2013-02-22 00:11:00,
2013-02-21 18:21:00,19.0,16.0,-100.00,NE,55,16.0,21.0,89,0.00,,,0.00,,2013-02-22 00:21:00,
2013-02-21 18:32:00,19.0,16.0,-100.00,ENE,60,17.0,25.0,89,0.00,,,0.00,,2013-02-22 00:32:00,
2013-02-21 18:41:00,19.0,16.0,-100.00,ENE,65,20.0,24.0,90,0.00,,,0.00,,2013-02-22 00:41:00,
2013-02-21 18:51:00,19.0,16.0,-100.00,ENE,60,17.0,23.0,90,0.00,,,0.00,,2013-02-22 00:51:00,
2013-02-21 19:01:00,19.0,16.0,-100.00,ENE,60,17.0,24.0,90,0.00,,,0.00,,2013-02-22 01:01:00,
2013-02-21 19:11:00,18.0,16.0,-100.00,ENE,70,17.0,24.0,90,0.00,,,0.00,,2013-02-22 01:11:00,
2013-02-21 19:21:00,18.0,16.0,-100.00,NE,55,16.0,22.0,91,0.00,,,0.00,,2013-02-22 01:21:00,
2013-02-21 19:32:00,18.0,16.0,-100.00,ENE,60,20.0,24.0,92,0.00,,,0.00,,2013-02-22 01:32:00,
2013-02-21 19:42:00,18.0,16.0,-100.00,ENE,60,18.0,26.0,92,0.00,,,0.00,,2013-02-22 01:42:00,
2013-02-21 19:51:00,18.0,16.0,-100.00,ENE,65,19.0,27.0,92,0.00,,,0.00,,2013-02-22 01:51:00,
2013-02-21 20:02:00,18.0,16.0,-100.00,ENE,75,16.0,21.0,92,0.00,,,0.00,,2013-02-22 02:02:00,
2013-02-21 20:11:00,18.0,16.0,-100.00,ENE,70,19.0,24.0,92,0.00,,,0.00,,2013-02-22 02:11:00,
2013-02-21 20:21:00,18.0,16.0,-100.00,ENE,65,20.0,26.0,92,0.00,,,0.00,,2013-02-22 02:21:00,
2013-02-21 20:31:00,18.0,16.0,-100.00,ENE,70,18.0,24.0,92,0.00,,,0.00,,2013-02-22 02:31:00,
2013-02-21 20:42:00,17.0,16.0,-100.00,ENE,65,20.0,28.0,92,0.00,,,0.00,,2013-02-22 02:42:00,
2013-02-21 20:52:00,17.0,16.0,-100.00,ENE,70,19.0,26.0,95,0.00,,,0.00,,2013-02-22 02:52:00,
2013-02-21 21:01:00,17.0,16.0,-100.00,ENE,70,15.0,25.0,98,0.00,,,0.00,,2013-02-22 03:01:00,
2013-02-21 21:11:00,17.0,16.0,-100.00,ENE,65,17.0,21.0,98,0.00,,,0.00,,2013-02-22 03:11:00,
2013-02-21 21:21:00,17.0,16.0,-100.00,ENE,75,20.0,28.0,98,0.00,,,0.00,,2013-02-22 03:21:00,
2013-02-21 21:32:00,16.0,16.0,-100.00,ENE,70,19.0,26.0,99,0.00,,,0.00,,2013-02-22 03:32:00,
2013-02-21 21:41:00,16.0,16.0,-100.00,ENE,70,17.0,24.0,99,0.01,,,0.00,,2013-02-22 03:41:00,
2013-02-21 21:51:00,16.0,16.0,-100.00,ENE,65,15.0,23.0,99,0.01,,,0.00,,2013-02-22 03:51:00,
2013-02-21 22:01:00,16.0,16.0,-100.00,ENE,70,17.0,21.0,99,0.00,,,0.00,,2013-02-22 04:01:00,
2013-02-21 22:11:00,16.0,16.0,-100.00,ENE,65,16.0,21.0,99,0.00,,,0.00,,2013-02-22 04:11:00,
2013-02-21 22:21:00,16.0,16.0,-100.00,ENE,65,12.0,21.0,99,0.00,,,0.00,,2013-02-22 04:21:00,
2013-02-21 22:32:00,16.0,16.0,-100.00,ENE,65,16.0,20.0,99,0.00,,,0.00,,2013-02-22 04:32:00,
2013-02-21 22:42:00,16.0,16.0,-100.00,ENE,60,14.0,19.0,99,0.00,,,0.00,,2013-02-22 04:42:00,
2013-02-21 22:51:00,16.0,16.0,-100.00,ENE,65,15.0,18.0,99,0.00,,,0.00,,2013-02-22 04:51:00,
2013-02-21 23:01:00,16.0,16.0,-100.00,ENE,65,12.0,17.0,99,0.00,,,0.01,,2013-02-22 05:01:00,
2013-02-21 23:12:00,16.0,16.0,-100.00,ENE,60,11.0,18.0,99,0.00,,,0.01,,2013-02-22 05:12:00,